Weather History for Miramar MCAS, CA

Change the Weather History Date:

Tuesday, January 14, 2014

  Actual Average Record
Temperature  
Mean Temperature 66 °F -  
Max Temperature 87 °F 64 °F 87 °F (2014)
Min Temperature 45 °F 44 °F 28 °F (2007)
Cooling Degree Days 1    
Growing Degree Days 16 (Base 50)    
Moisture  
Dew Point 10 °F    
Average Humidity 15    
Maximum Humidity 26    
Minimum Humidity 4    
Precipitation  
Precipitation 0.00 in - - ()
Sea Level Pressure  
Sea Level Pressure 30.21 in    
Wind  
Wind Speed 6 mph (NE)    
Max Wind Speed 18 mph    
Max Gust Speed 29 mph    
Visibility 10 miles    
Events      
Averages and records for this station are not official NWS values.
T = Trace of Precipitation, MM = Missing Value Source: NWS Daily Summary

Daily Weather History Graph

Daily Weather History Graph

Search for Another Location

Airport:

Trip Planner

Search our weather history database for the weather conditions in past years. The results will help you decide how hot, cold, wet, or windy it might be!

Date:

Astronomy

Jan. 14, 2014 Rise Set
Actual Time 6:51 AM PST 5:04 PM PST
Civil Twilight 6:24 AM PST 5:30 PM PST
Nautical Twilight 5:54 AM PST 6:01 PM PST
Astronomical Twilight 5:24 AM PST 6:31 PM PST
Moon 4:11 PM PST (1/14) 5:30 AM PST (1/14)
Length of Visible Light 11h 06m
Length of Day
10h 12m
Waxing Gibbous, 98% of the Moon is Illuminated
Jan 14
Waxing Gibbous
Jan 15
Full
Jan 23
Last Quarter
Jan 30
New
Feb 6
First Quarter

Hourly Weather History & Observations

Time (PST) Temp. Windchill Dew Point Humidity Pressure Visibility Wind Dir Wind Speed Gust Speed Precip Events Conditions
12:55 AM 48.0 °F - 12.0 °F 24% 30.23 in 10.0 mi ENE 4.6 mph - N/A   Clear
1:55 AM 50.0 °F - 12.0 °F 22% 30.23 in 10.0 mi ENE 4.6 mph - N/A   Clear
2:55 AM 50.0 °F - 12.9 °F 23% 30.23 in 10.0 mi NE 6.9 mph - N/A   Clear
3:55 AM 45.0 °F 41.2 °F 12.0 °F 26% 30.23 in 10.0 mi East 6.9 mph - N/A   Clear
4:55 AM 46.9 °F - 12.9 °F 25% 30.23 in 10.0 mi ENE 5.8 mph - N/A   Clear
5:55 AM 46.0 °F 43.1 °F 12.0 °F 25% 30.25 in 10.0 mi East 5.8 mph - N/A   Clear
6:55 AM 46.9 °F - 12.9 °F 25% 30.26 in 10.0 mi East 5.8 mph - N/A   Clear
7:55 AM 59.0 °F - 14.0 °F 17% 30.27 in 10.0 mi Calm Calm - N/A   Clear
8:55 AM 72.0 °F - 8.1 °F 8% 30.27 in 10.0 mi East 5.8 mph - N/A   Clear
9:55 AM 77.0 °F - 10.0 °F 8% 30.27 in 10.0 mi North 5.8 mph - N/A   Clear
10:55 AM 82.9 °F - 5.0 °F 5% 30.24 in 10.0 mi NNE 8.1 mph - N/A   Clear
11:55 AM 84.0 °F - 8.1 °F 6% 30.21 in 10.0 mi Variable 5.8 mph - N/A   Clear
12:55 PM 87.1 °F - -2.9 °F 4% 30.17 in 10.0 mi ENE 18.4 mph 24.2 mph N/A   Clear
1:55 PM 87.1 °F - -0.0 °F 4% 30.16 in 10.0 mi ENE 16.1 mph 28.8 mph N/A   Clear
2:55 PM 81.0 °F - 17.1 °F 9% 30.16 in 10.0 mi NW 5.8 mph 19.6 mph N/A   Clear
3:55 PM 79.0 °F - 14.0 °F 9% 30.17 in 10.0 mi NW 8.1 mph - N/A   Clear
4:55 PM 71.1 °F - 19.9 °F 14% 30.17 in 10.0 mi Calm Calm - N/A   Clear
5:55 PM 72.0 °F - 8.1 °F 8% 30.18 in 10.0 mi North 3.5 mph - N/A   Clear
6:55 PM 70.0 °F - 3.9 °F 7% 30.18 in 10.0 mi ENE 8.1 mph - N/A   Clear
7:55 PM 64.0 °F - 3.9 °F 9% 30.19 in 10.0 mi East 4.6 mph - N/A   Clear
8:55 PM 57.9 °F - 6.1 °F 13% 30.20 in 10.0 mi Variable 3.5 mph - N/A   Clear
9:55 PM 55.9 °F - 10.9 °F 17% 30.19 in 10.0 mi ESE 6.9 mph - N/A   Clear
10:55 PM 50.0 °F - 14.0 °F 24% 30.19 in 10.0 mi Calm Calm - N/A   Clear
11:55 PM 48.9 °F - 12.9 °F 24% 30.19 in 10.0 mi NE 4.6 mph - N/A   Clear